DELTA 1 R/B, 575

Orbit data source: Space-Track

DELTA 1 R/B, 575 is space debris in HEO originally from a launch on Tue, 07 May 1963 UTC launched from the Air Force Eastern Test Range (AFETR). Debris objects in space refer to the collection of defunct objects orbiting the Earth. Examples of debris include non-operational satellites, rocket bodies, and fragments generated from explosions, collisions, or faulty payload assembly.

Loading next visibility...
DELTA 1 R/B details
Identifier
575, 1963-013B
Orbit
HEO
Last TLE update14 hours ago
Origin
Flag of USGSFC (US)
ManufacturerABL
MissionSpacecraft
Bus & MotorALTAIR, Unknown motor
Mass24 kg wet, 24 kg dry
Launch date (UTC)
1963-05-07 (62 years ago)
Launch vehicleUnknown
Launch site
Air Force Eastern Test Range (AFETR)
Object type
Payload
Rocket body
Debris
Shape & HBRCyl, 1.52 m
Radar Cross Section0.695 m², Medium (>0.1 m² and < 1m²)

Expand to show TLE details & history

TLE from 14 hours ago
0 DELTA 1 R/B
1   575U 63013B   25036.18836046  .00000090  00000-0  15389-2 0  9999
2   575  42.7660  91.6501 4008222 328.5067  30.7105  6.40247552444378
Epoch: 2025-02-05T04:31Z
Definitive object data (Epoch: 2025-02-05T04:31:14.343Z)
Latitude23.96099°
Longitude-83.16486°
Altitude2,568.406 km
Speed7.524 km/s
True Right ascension08h 00m 54s
True Declination23° 51' 34"
Sunlit
Object was in full shadow at TLE epoch
Visualization TLE readout
Latitude-42.6958°
Longitude164.52609°
Altitude1,964.171 km
Speed7.945 km/s
Apparent Right ascension03h 55m 17s
Apparent Declination-62° 41' 30"
Sunlit
Object is in daylight
Visualization observer readout
Local Sidereal Time21:01:27
Azimuth143.95° SSE
Elevation-40.697°
Doppler factor1
Orbital elements
Apogee altitude10,785.301 km
Perigee altitude963.231 km
Semi-major axis12,252.403 km
Eccentricity0.4008222
Inclination42.766°
RAAN91.6501°
Arg. of periapsis328.5067°
True anomaly68.10918°
Mean anomaly30.7105°
Eccentric anomaly47.69512°
Mean motion1.60034 °/min
BSTAR0.0015389
Orbital period224.95 mins
Loading maneuver chart data...
Loading historical data...
Loading historical data...
Loading historical data...
Loading historical data...
Loading historical data...
Loading historical data...
Loading historical data...
Other satellites on launch #13 in the year 1963 (1963-05-07 UTC)

DELTA 1 R/B Visibility forecast

Observer location: undefined°, undefined

Span
Click to sort rows by Start time (UTC) header in descending order
Start Az.
Max El. time (UTC)
Max El. Az.
Max El.
End time (UTC)
End Az.
61 mins2025-02-06 06:41:13.775Z226.56° WSW2025-02-06 06:53:13.775Z150.323° SSE43.806°2025-02-06 07:42:13.775Z69.444° E
117 mins2025-02-06 10:40:13.775Z280.753° WNW2025-02-06 11:10:13.775Z30.868° NE44.975°2025-02-06 12:37:13.775Z119.388° SE
120 mins2025-02-06 14:45:13.775Z296.841° NW2025-02-06 15:38:13.775Z242.305° WSW37.167°2025-02-06 16:45:13.775Z178.972° S
|